Flag for Russia Weather past 2 weeks in Kazan, Russia

37 °F


Feels Like: 31 °F
Forecast: 33 / 39 °F
Wind: 8 mph from North

Location: Kazan'

Current Time: Oct 6, 2015 at 9:44:05 PM

Latest Report: Oct 6, 2015 at 9:00 PM

Visibility: 10 mi

Pressure: 29.80 "Hg

Humidity: 70%

Dew point: 28 °F

Location of KazanLocation

Historic Weather in Kazan — Graph


Kazan temperature yesterday

Maximum temperature yesterday: 59 °F (at 1:30 PM)
Minimum temperature yesterday: 34 °F (at 3:00 AM)
Average temperature yesterday: 49 °F

Past Weeks' High & Low Weather Summary

High82 °F (Sep 27, 12:30 PM)100% (Sep 25, 5:30 AM)30.30 "Hg (Sep 25, 5:30 AM)
Low34 °F (Oct 5, 3:00 AM)28% (Sep 26, 2:30 PM)29.12 "Hg (Oct 3, 9:00 AM)
Average57 °F69%30.06 "Hg
* Reported Sep 21 8:00 PM — Oct 6 8:00 PM, Kazan, Weather by CustomWeather, © 2015

Note: Actual official high and low records may vary slightly from our data, if they occured in-between our weather recording intervals... More about our weather records


Kazan weather history for previous 24 hours

Time TempWeatherWind HumidityBarometerVisibility
8:00 PM
Tue, Oct 6
37 °FClear.8 mph70%29.80 "Hg10 mi
7:30 PM37 °FClear.10 mph70%29.80 "Hg10 mi
7:00 PM39 °FClear.10 mph65%29.83 "Hg10 mi
6:30 PM39 °FClear.13 mph70%29.83 "Hg10 mi
6:00 PM39 °FSunny.13 mph70%29.80 "Hg10 mi
5:30 PM39 °FSunny.8 mph75%29.80 "Hg10 mi
5:00 PM39 °FSunny.10 mph81%29.80 "Hg10 mi
4:30 PM39 °FOvercast.13 mph81%29.80 "HgN/A
4:00 PM41 °FOvercast.13 mph81%29.80 "HgN/A
3:30 PM43 °FSunny.8 mph81%29.77 "Hg10 mi
3:00 PM41 °FLight rain. Overcast.6 mph93%29.77 "HgN/A
2:30 PM43 °FLight rain. Overcast.10 mph87%29.77 "HgN/A
2:00 PM43 °FLight rain. Overcast.8 mph87%29.77 "HgN/A
1:30 PM43 °FLight rain. Overcast.10 mph87%29.77 "HgN/A
1:00 PM45 °FLight rain. Overcast.6 mph87%29.77 "HgN/A
12:30 PM45 °FLight rain. Overcast.8 mph87%29.77 "HgN/A
12:00 PM46 °FLight rain. Overcast.8 mph87%29.77 "HgN/A
11:30 AM46 °FLight rain. Overcast.10 mph82%29.74 "HgN/A
11:00 AM48 °FLight rain. Overcast.8 mph82%29.74 "HgN/A
10:30 AM50 °FOvercast.8 mph76%29.74 "HgN/A
10:00 AM50 °FOvercast.6 mph76%29.74 "HgN/A
9:30 AM50 °FOvercast.8 mph76%29.74 "HgN/A
9:00 AM50 °FSunny.8 mph76%29.74 "Hg10 mi
8:30 AM50 °FSunny.10 mph76%29.71 "Hg10 mi
8:00 AM50 °FSunny.8 mph76%29.71 "Hg10 mi
7:30 AM50 °FSunny.8 mph76%29.71 "Hg10 mi
7:00 AM50 °FSunny.8 mph82%29.71 "Hg10 mi
6:30 AM50 °FClear.8 mph76%29.71 "Hg10 mi
5:30 AM50 °FClear.8 mph82%29.71 "Hg10 mi
5:00 AM50 °FClear.8 mph76%29.71 "Hg10 mi
4:30 AM50 °FClear.6 mph71%29.71 "Hg10 mi
4:00 AM52 °FClear.6 mph67%29.71 "Hg10 mi
3:30 AM52 °FClear.3 mph67%29.71 "Hg10 mi
3:00 AM52 °FPassing clouds.8 mph67%29.71 "HgN/A
2:30 AM52 °FClear.6 mph67%29.71 "Hg10 mi
2:00 AM52 °FClear.6 mph62%29.71 "Hg10 mi
1:30 AM54 °FClear.6 mph58%29.71 "Hg10 mi
12:30 AM54 °FOvercast.6 mph58%29.74 "HgN/A
12:00 AM54 °FPassing clouds.6 mph63%29.74 "HgN/A
11:30 PM
Mon, Oct 5
54 °FPassing clouds.3 mph63%29.74 "HgN/A
11:00 PM52 °FPassing clouds.6 mph67%29.74 "HgN/A
10:30 PM52 °FClear.6 mph67%29.74 "Hg10 mi
10:00 PM55 °FClear.8 mph55%29.74 "Hg10 mi
9:30 PM57 °FClear.8 mph44%29.77 "Hg10 mi
9:00 PM57 °FPassing clouds.8 mph44%29.77 "HgN/A
Weather by CustomWeather, © 2015

See weather overviewHow to use our weather pages